Location: Cambridge (historical)
(38.6883°N, 119.0140°W)
Time: 17:29:21
(UTC+00:00)

SJ-12 - Pass Details

Date: 29 October 2020
Orbit: 568 x 585 km, 97.7° (Epoch: 22 November)

Event Time Altitude Azimuth Distance (km) Brightness Sun altitude
Rises 13:30:04 0° 3° (N) 2,804 7.4 -10.4°
Reaches altitude 10° 13:32:19 10° 356° (N) 1,897 6.4 -10.0°
Maximum altitude 13:36:09 39° 288° (WNW) 878 4.4 -9.2°
Drops below altitude 10° 13:39:55 10° 219° (SW) 1,874 6.3 -8.5°
Sets 13:42:09 0° 211° (SSW) 2,765 7.2 -8.1°
